< < Back
Terminal Aerodrome Forecast


Current Version              Previous Versions:   1  2  3  4  5  6  7  8  9  

Terminal Aerodrome Forecast

687
FTUS42 KJAX 291259 AAA
TAFSSI
TAF AMD
KSSI 291259Z 2913/3012 30012G18KT P6SM SCT020
     FM292000 31009KT P6SM SCT040 SCT150
     FM300000 28006KT P6SM FEW040 SCT150=

Latest METAR

349
SAUS70 KWBC 291700 RRH
MTRSSI
METAR KSSI 291653Z AUTO 31013G24KT 10SM FEW042 28/18 A3004 RMK AO2
SLP174 T02780178


USA.gov is the U.S. government's official web portal to all federal, state and local government web resources and services.